Home > Weather > Salta > Past weeks

Flag for Argentina Past Weather in Salta, Salta, Argentina — Yesterday and Last 2 Weeks

Now
81 °F

Sunny.


Feels Like: 79 °F
Forecast: 33 / 78 °F
Wind: 7 mph from North

Location: Salta Aerodrome

Current Time: Aug 24, 2016 at 4:55:32 PM

Latest Report: Aug 24, 2016 at 4:00 PM


Visibility: 10 mi

Pressure: 29.89 "Hg (26.12 "Hg at 1184m altitude)

Humidity: 17%

Dew Point: 32 °F

Location of SaltaLocation

Past Weather in Salta — Graph

°F

Salta Temperature Yesterday

Maximum temperature yesterday: 73 °F (at 4:00 PM)
Minimum temperature yesterday: 34 °F (at 7:00 AM)
Average temperature yesterday: 53 °F

High & Low Weather Summary for the Past Weeks

 TemperatureHumidityPressure
High86 °F (Aug 15, 4:00 PM)100% (Aug 10, 6:00 AM)30.54 "Hg (Aug 10, 6:00 AM)
Low30 °F (Aug 22, 6:00 AM)8% (Aug 15, 5:00 PM)29.74 "Hg (Aug 16, 4:00 PM)
Average57 °F58%30.08 "Hg
* Reported Aug 9 3:00 PM — Aug 24 3:00 PM, Salta, Weather by CustomWeather, © 2016

Note: Actual official high and low records may vary slightly from our data, if they occured in-between our weather recording intervals... More about our weather records

Advertising

Salta Weather History for the Previous 24 Hours

Scroll right to see more
 ConditionsComfort  
Time TempWeatherWind HumidityBarometerVisibility
3:00 PM
Wed, Aug 24
77 °FSunny.6 mph21%29.89 "Hg10 mi
2:00 PM75 °FSunny.2 mph25%29.95 "Hg10 mi
1:00 PM70 °FSunny.6 mph29%29.95 "Hg10 mi
12:00 PM46 °FSunny.3 mph66%29.98 "Hg10 mi
11:00 AM59 °FSunny.2 mph42%29.98 "Hg10 mi
10:00 AM54 °FSunny.3 mph54%30.01 "Hg10 mi
9:00 AM43 °FPassing clouds.No wind81%30.01 "HgN/A
8:00 AM36 °FPassing clouds.No wind87%30.01 "HgN/A
7:00 AM37 °FSunny.No wind81%30.01 "Hg10 mi
6:00 AM37 °FClear.No wind87%29.98 "Hg10 mi
5:00 AM39 °FClear.3 mph81%29.98 "Hg10 mi
4:00 AM39 °FClear.2 mph81%30.01 "Hg10 mi
3:00 AM41 °FClear.6 mph76%30.04 "Hg10 mi
2:00 AM41 °FClear.No wind76%30.04 "Hg10 mi
1:00 AM45 °FClear.2 mph71%30.07 "Hg10 mi
12:00 AM45 °FClear.No wind71%30.09 "Hg10 mi
11:00 PM
Tue, Aug 23
48 °FClear.2 mph62%30.09 "Hg10 mi
10:00 PM52 °FClear.3 mph50%30.09 "Hg10 mi
9:00 PM57 °FClear.5 mph36%30.07 "Hg10 mi
8:00 PM61 °FClear.7 mph29%30.07 "Hg10 mi
7:00 PM64 °FClear.7 mph18%30.04 "Hg10 mi
6:00 PM68 °FSunny.9 mph20%30.01 "Hg10 mi
5:00 PM73 °FSunny.6 mph19%30.01 "Hg10 mi
4:00 PM73 °FSunny.8 mph19%30.01 "Hg10 mi
Weather by CustomWeather, © 2016

See weather overviewHow to use our weather pages